Regional Weather Roundup
Issued by NWS Burlington, VT

Home | Current Version | Previous Version | Text Only | Print | Product List | Glossary On
Versions: 1 2 3 4 5 6 7 8 9 10 11 12 13 14 15 16 17 18 19 20 21 22 23 24 25 26 27 28 29 30 31 32 33 34 35 36 37 38 39 40 41 42 43 44 45 46 47 48 49 50
000
ASUS41 KBTV 091530
RWRBTV
VERMONT REGIONAL WEATHER ROUNDUP
NATIONAL WEATHER SERVICE BURLINGTON VT
1000 AM EST TUE FEB 09 2016

NOTE: "FAIR" INDICATES FEW OR NO CLOUDS BELOW 12,000 FEET WITH NO
SIGNIFICANT WEATHER AND/OR OBSTRUCTIONS TO VISIBILITY.

* THESE REPORTS ARE NOT UNDER NWS QUALITY CONTROL AND/OR DO NOT
  REPORT WEATHER SUCH AS PRECIPITATION AND FOG.

VTZ001>019-091600-
_____VERMONT_____


CITY           SKY/WX    TMP DP  RH WIND       PRES   REMARKS
BURLINGTON     PTSUNNY   25  16  68 CALM      29.67S
MONTPELIER     PTSUNNY   20  12  71 S9        29.67F WCI   9
MORRISVILLE    LGT SNOW  23  14  68 S3        29.67S
ST. JOHNSBURY*   N/A     22  13  68 MISG      29.66R
LYNDONVILLE*   FAIR      21  14  75 S3        29.65R
RUTLAND*       CLOUDY    19  12  73 SE12      29.66S WCI   7
SPRINGFIELD    LGT SNOW  20  15  81 CALM      29.70S VSB 1
HIGHGATE*      CLOUDY    23  17  76 E3        29.68S
NEWPORT*       FAIR      18  12  77 CALM      29.66R
BENNINGTON     LGT SNOW  24  16  71 SE7       29.65S WCI  16
GALLUP MILLS*    N/A     21 N/A N/A MISG        N/A
UNION VILLAGE*   N/A     23 N/A N/A MISG        N/A
MT. MANSFIELD*   N/A     12 N/A N/A W7          N/A  WCI   2

_____LAKE CHAMPLAIN_____


CITY           SKY/WX    TMP DP  RH WIND       PRES   REMARKS
COLCHESTER RF*   N/A     25  23  93 SW5         N/A  WCI  19
DIAMOND ISL*     N/A     25  23  93 S7          N/A  WCI  17

$$

NYZ007-026>031-035-052-083-091600-
_____NORTHERN NEW YORK_____


CITY           SKY/WX    TMP DP  RH WIND       PRES   REMARKS
PLATTSBURGH    CLOUDY    21  16  81 N6        29.67F WCI  13
SARANAC LAKE   LGT SNOW  19  14  81 NE6       29.53S WCI  11
MASSENA        LGT SNOW  20  14  77 E12       29.68S WCI   8
OGDENSBURG*    LGT SNOW  23  18  80 E10       29.63F WCI  12
STARK FALLS*     N/A     25 N/A N/A SE3         N/A
WATERTOWN      LGT SNOW  28  23  81 E7        29.58S WCI  21
ALBANY         LGT SNOW  25  19  78 S9        29.68F WCI  15
GLENS FALLS    LGT SNOW  24  20  84 CALM      29.68F VSB 1

$$
NHZ002-005-011-091600-
_____NEW HAMPSHIRE_____


CITY           SKY/WX    TMP DP  RH WIND       PRES   REMARKS
LEBANON        LGT SNOW  22  14  71 S8        29.69S WCI  12
MT WASHINGTON  PTSUNNY   10   7  85 SW7         N/A  WCI   0
PLYMOUTH       CLOUDY    22  14  69 SE5       29.70F WCI  16
WHITEFIELD     MOSUNNY   22  11  62 S5        29.64R WCI  16

$$

_____REGIONAL QUEBEC LOCATIONS_____


CITY           SKY/WX    TMP DP  RH WIND       PRES   REMARKS
MONTREAL       FLURRIES  19  12  73 NE14      29.70F WCI   6
QUEBEC CITY    LGT SNOW  18  12  79 E13G21    29.77F DRFTSNOWWCI   4
SHERBROOKE     PTSUNNY   16  12  86 NE8       29.67F FOG     WCI   5

_____REGIONAL ONTARIO LOCATIONS_____


CITY           SKY/WX    TMP DP  RH WIND       PRES   REMARKS
OTTAWA         LGT SNOW  18  12  79 E13       29.66F DRFTSNOWWCI   4

______KEY______
VSB  - VISIBILITY IN MILES
WCI  - WIND CHILL INDEX
HX   - HEAT INDEX
$$
NNNN



USA.gov is the U.S. government's official web portal to all federal, state and local government web resources and services.